Location: Trebic
(49.2170°N, 15.8830°E)
Time: 01:15:47
(UTC+01:00)

Transit 4A - Pass Details

Date: 29 October 2020
Orbit: 862 x 982 km, 66.8° (Epoch: 28 November)

Event Time Altitude Azimuth Distance (km) Brightness Sun altitude
Rises 21:52:28 0° 323° (NW) 3,694 11.7 -48.3°
Reaches altitude 10° 21:55:17 10° 332° (NNW) 2,746 10.8 -48.6°
Enters shadow 21:56:00 13° 335° (NNW) 2,518 10.6 -48.7°
